SL-16 DEB, 22343

Orbit data source: Space-Track

SL-16 DEB, 22343 is space debris in LEO originally from a launch on Fri, 25 Dec 1992 UTC launched from the Tyuratam Missile And Space Complex (TTMTR). Debris objects in space refer to the collection of defunct objects orbiting the Earth. Examples of debris include non-operational satellites, rocket bodies, and fragments generated from explosions, collisions, or faulty payload assembly.

Loading next visibility...
Identifier
22343, 1992-093AG
Orbit
LEO
Country
Flag of CISCIS
Related business
Manufacturer
Unknown
Mission
Spacecraft
Bus & Motor
Unknown
Mass
Unknown
Launch date (UTC)
1992-12-25 (33 years ago)
Launch vehicle
Unknown
Launch site
Tyuratam Missile And Space Complex (TTMTR)
Object type
Payload
Rocket body
Debris
Shape & HBR
Unknown shape, 0.4 m
Radar Cross Section
Medium (>0.1 m² and <1 m²)

Expand to show TLE details & history
Last TLE update: 11 hours ago

TLE from 11 hours ago
0 SL-16 DEB
1 22343U 92093AG  25296.17367779  .00000798  00000-0  44530-3 0  9991
2 22343  70.9573 252.8976 0093245 183.9432 275.0035 14.11716729682758
Epoch: 2025-10-23T04:10Z
TLE epoch observation values (Epoch: 2025-10-23T04:10:05.761Z)
Latitude
69.54279°
Longitude
-88.44822°
Altitude
859.726 km
Speed
7.432 km/s
True Right ascension
00h 23m 39s
True Declination
69° 25' 53"
Sunlit
Object was in full shadow at epoch
Visualization orbit readout
Latitude
Unknown
Longitude
Unknown
Altitude
Unknown
Speed
Unknown
Apparent Right ascension
Unknown
Apparent Declination
Unknown
Sunlit
N/A
Visualization observer readout
Local Sidereal Time
10:31:17
Azimuth
Unknown
Elevation
Unknown
Doppler factor
Unknown
Orbital elements
Apogee altitude
918.847 km
Perigee altitude
784.023 km
Semi-major axis
7,229.572 km
Eccentricity
0.00932
Inclination
70.9573°
RAAN
252.8976°
Arg. of periapsis
183.9432°
True anomaly
273.93804°
Mean anomaly
275.0035°
Eccentric anomaly
274.47087°
Mean motion
3.53081 °/min
Orbital period
101.96 mins
BSTAR
0.0004453
Loading maneuver chart data...
Computing Atmospheric mass density...

Documentation

Showing up to 5 results
|